Tracking 22458 objects as of 3-Mar-2021
HD Live streaming from Space Station
objects crossing your sky now

H-2A R/B

Track H-2A R/B now!
10-day predictions


NORAD ID: 43496
Int'l Code: 2018-052B
Perigee: 480.2 km
Apogee: 504.2 km
Inclination: 97.2 °
Period: 94.3 minutes
Semi major axis: 6863 km
RCS: Unknown
Launch date: June 12, 2018
Source: Japan (JPN)
Launch site: TANEGASHIMA SPACE CENTER (TNSTA)

Note: This is a ROCKET BODY
aabbcc
Your satellite tracking list
Your tracking list is empty




NASA's NSSDC Master Catalog

Two Line Element Set (TLE):
1 43496U 18052B   20252.94287810 0.00001150  00000-0  43411-4 0    09
2 43496  97.2380 351.3972 0017495  14.3570 345.6428 15.26912730    01
Source of the keplerian elements: McCants